Weather in Yelanda

Russia / Altai Krai     53°11′22″N   85°43′09″E
temp.,
°C
wind,
m/s
gust,
m/s
humid.,
%
clouds,
%
prec.,
mm/h
press.,
hPa
HPBL,
m
27 january, wed
wed2701:00−17s3796100 0.2 1036166
04:00−13s51095100 0.5 1033465
07:00−12ssw61194100 1.5 1031614
10:00−7sw81694100 1.4 1027810
13:00−5wsw91787100 2.9 1026869
16:00−5wsw91787100 0.3 1025894
19:00−5wsw91693100 1.5 1026778
22:00−6wsw91793100 2.1 1027784
28 january, thu
thu2801:00−6wsw81593100 3.6 1028759
04:00−6wsw81593100 1.3 1029719
07:00−7wsw71394100 2.6 1031619
10:00−7wsw61394100 1.3 1032553
13:00−6wsw71392100 2.2 1032558
16:00−5wsw71288100 0.3 1030731
19:00−7wsw61390100 0.4 1030641
22:00−6wsw71489100 0.1 1030646
29 january, fri
fri2901:00−6wsw81589100 0.1 1029745
04:00−5wsw81689100 0.1 1028760
07:00−5wsw91888100 0.1 1026739
10:00−4wsw102083100 0.0 1025799
13:00−4w91784100 0.0 1025915
16:00−5wsw81492100 0.4 1026905
19:00−5wsw61395100 2.6 1028817
22:00−4w61195100 2.0 1028771
30 january, sat
sat3001:00−5w51195100 3.8 1028737
04:00−5wsw51195100 1.3 1029682
07:00−6wsw51095100 2.3 1029584
10:00−7wsw51095100 1.0 1030561
13:00−6wsw5895100 2.2 1031545
16:00−6wsw4795100 1.1 1031498
19:00−8wsw2496100 1.6 103390
22:00−9wsw2296100 0.3 103326
31 january, sun
sun3101:00−10sse119696 0.4 103321
04:00−13ese119783 0.0 103321
07:00−14ese229676 0.0 103221
10:00−13e239483 0.0 103047
13:00−9e239288 0.0 1028133
16:00−7ene239188 0.0 102648
19:00−8ene339194 0.0 102532
22:00−8ene2289100 0.0 102421